Regional Weather Roundup
Issued by NWS Goodland, KS

Home | Current Version | Previous Version | Graphics & Text | Print | Product List | Glossary On
Versions: 1 2 3 4 5 6 7 8 9 10 11 12 13 14 15 16 17 18 19 20 21 22 23 24 25 26 27 28 29 30 31 32 33 34 35 36 37 38 39 40 41 42 43 44 45 46 47 48 49 50
000
ASUS43 KGLD 181308
RWRGLD

GOODLAND FORECAST AREA HOURLY WEATHER ROUNDUP
NATIONAL WEATHER SERVICE GOODLAND KS
600 AM MST SUN FEB 18 2018

...OFFICIAL OBSERVATIONS...

CITY           SKY/WX    TMP DP  RH WIND       PRES   REMARKS
GOODLAND KS    CLOUDY    37  25  61 S13       29.62F
HILL CITY KS   CLOUDY    45  24  43 S18G35    29.73F
IMPERIAL NEB   PTCLDY    29  21  72 S8        29.58F
MCCOOK NEB     CLOUDY    40  26  57 SW20      29.63F
AKRON CO       CLEAR     46  16  30 SW21G31   29.57F
BURLINGTON CO  CLOUDY    30  19  63 SW10      29.64F
LIMON CO       CLOUDY    38  11  32 SE6       29.66S
$$

...UNOFFICIAL OBSERVATIONS...

CITY           SKY/WX    TMP DP  RH WIND       PRES   REMARKS
COLBY KS       CLOUDY    39  30  70 S21G29    29.66F
LENORA KS        N/A     43  32  65 S20         N/A
NORTON KS      CLEAR     39  18  41 S18G26    29.68
SHARON SPRINGS   N/A     40  29  64 S17G24      N/A
TRENTON NEB      N/A     34  32  92 SW8         N/A
KIT CARSON CO    N/A     28  18  66 CALM        N/A
$$



USA.gov is the U.S. government's official web portal to all federal, state and local government web resources and services.